Location: Pinon Hills
(34.4429°N, 117.6403°W)
Time: 21:56:39
(UTC-08:00)

Amateur Radio Satellites - All Passes

Search period start: 06 February 2016 21:26
Search period end: 07 February 2016 21:26
Location: Pinon Hills, 34.4429°N, 117.6403°W

Satellite Date Start Highest point End Downlink Frequencies (MHz)
Time Altitude Azimuth
AISAT 06 Feb 21:29:53 21:32:37 16° 67° (ENE) 21:35:21 437.250
AIST 1 06 Feb 21:30:27 21:34:27 35° 79° (E) 21:38:23
DELFI C3 06 Feb 21:30:28 21:34:01 32° 262° (W) 21:37:38 145.870
ESTCUBE 1 06 Feb 21:37:11 21:40:31 21° 69° (ENE) 21:43:53 437.505/2401.250
UWE-3 06 Feb 21:48:54 21:50:07 11° 267° (W) 21:51:20 435.000/436.395/437.385
RS-15 06 Feb 21:49:53 22:01:59 70° 247° (WSW) 22:14:09 29.354- 29.394
ANTELSAT 06 Feb 21:54:28 21:58:36 43° 99° (E) 22:02:48 437.575/2403.000
CUBEBUG 1 06 Feb 21:58:38 22:02:17 26° 70° (ENE) 22:05:58 437.445
HUMSAT D 06 Feb 22:00:18 22:04:07 38° 262° (W) 22:07:57 437.325/437.525
UKube-1 06 Feb 22:00:44 22:04:32 31° 71° (ENE) 22:08:21 .
TIGRISAT 06 Feb 22:02:30 22:06:44 51° 101° (E) 22:11:00 435.000
POLYITAN 1 06 Feb 22:05:49 22:07:19 12° 93° (E) 22:08:50 437.675
DX 1 06 Feb 22:06:10 22:10:19 43° 73° (ENE) 22:14:29 434.975-435.025
QB50P2 06 Feb 22:06:23 22:08:11 12° 93° (E) 22:09:59 145.880/145.840
Cosmos 2499 06 Feb 22:12:06 22:19:49 43° 273° (W) 22:27:01 435.465 / 435.565
PCSat 06 Feb 22:16:43 22:19:51 16° 256° (WSW) 22:23:00 145.827
SPROUT 06 Feb 22:17:44 22:19:56 14° 67° (ENE) 22:22:07 437.525
ISS 06 Feb 22:20:57 22:22:27 12° 28° (NNE) 22:23:56 145.825
50 SAT 06 Feb 22:23:37 22:27:18 81° 77° (ENE) 22:31:01 437.505
GONETS M04 06 Feb 22:23:41 22:28:21 16° 281° (W) 22:33:04
POPSAT HIP 1 06 Feb 22:35:29 22:39:04 27° 97° (E) 22:42:38 437.405
NANOSAT C BR1 06 Feb 22:42:14 22:46:00 32° 98° (E) 22:49:45 145.865
DUCHIFAT 1 06 Feb 22:45:12 22:48:59 33° 98° (E) 22:52:45 145.980
UNISAT 6 06 Feb 22:45:59 22:50:06 43° 286° (WNW) 22:54:15 437.425
QB50P1 06 Feb 22:48:10 22:52:08 39° 99° (E) 22:56:04 145.935-145.965
VELOX 1 06 Feb 22:48:13 22:52:39 66° 259° (W) 22:57:06 145.980
AISAT 06 Feb 23:04:33 23:08:45 40° 261° (W) 23:12:58 437.250
AIST 1 06 Feb 23:09:16 23:11:40 15° 274° (W) 23:14:04
ESTCUBE 1 06 Feb 23:13:08 23:17:06 30° 263° (W) 23:21:07 437.505/2401.250
ANTELSAT 06 Feb 23:32:43 23:34:57 14° 293° (WNW) 23:37:11 437.575/2403.000
CUBEBUG 1 06 Feb 23:34:56 23:38:29 23° 264° (W) 23:42:03 437.445
UKube-1 06 Feb 23:37:33 23:40:35 19° 265° (W) 23:43:39 .
POLYITAN 1 06 Feb 23:39:20 23:43:20 44° 286° (WNW) 23:47:19 437.675
QB50P2 06 Feb 23:40:12 23:44:10 42° 286° (WNW) 23:48:08 145.880/145.840
TIGRISAT 06 Feb 23:41:25 23:42:58 12° 294° (WNW) 23:44:31 435.000
DX 1 06 Feb 23:44:30 23:46:40 14° 266° (W) 23:48:52 434.975-435.025
SPROUT 06 Feb 23:51:24 23:55:30 43° 261° (W) 23:59:37 437.525
ISS 06 Feb 23:56:01 23:59:16 80° 223° (SW) 00:02:30 145.825
BUGSAT 1 07 Feb 00:01:18 00:05:14 52° 286° (WNW) 00:09:07 437.445
RS-15 07 Feb 00:07:59 00:12:15 12° 264° (W) 00:16:33 29.354- 29.394
POPSAT HIP 1 07 Feb 00:11:37 00:14:40 20° 291° (WNW) 00:17:43 437.405
TISAT 1 07 Feb 00:13:08 00:17:21 69° 258° (WSW) 00:21:34 437.305
SWISSCUBE 07 Feb 00:14:40 00:18:16 22° 68° (ENE) 00:21:53 437.505
NANOSAT C BR1 07 Feb 00:18:46 00:21:29 17° 291° (WNW) 00:24:11 145.865
DUCHIFAT 1 07 Feb 00:21:47 00:24:25 16° 292° (WNW) 00:27:01 145.980
QB50P1 07 Feb 00:25:21 00:27:33 14° 293° (WNW) 00:29:45 145.935-145.965
Oscar 19 07 Feb 00:43:13 00:47:54 35° 98° (E) 00:52:33 437.125/150
ITUPSAT 1 07 Feb 00:48:38 00:53:08 44° 73° (ENE) 00:57:41 437.325
Gurwin Techsat 1B 07 Feb 00:49:11 00:51:49 14° 92° (E) 00:54:28 435.225
PHONESAT 2.4 07 Feb 00:50:40 00:53:29 26° 147° (SSE) 00:56:18 2401.200-2431.200
BEESAT 07 Feb 00:59:09 01:03:49 60° 74° (ENE) 01:08:31 436.000
Cosmos 2491 07 Feb 01:14:09 01:21:10 26° 72° (ENE) 01:28:09 435.465 / 435.565
JAS-2 07 Feb 01:18:22 01:23:53 51° 99° (E) 01:28:58 435.910
CUSAT 1 07 Feb 01:29:13 01:36:38 63° 93° (E) 01:44:41 437.405
DANDE 07 Feb 01:35:43 01:42:17 41° 88° (E) 01:49:54 436.750
ITAMSAT 1 07 Feb 01:45:02 01:49:22 26° 96° (E) 01:53:41 435.822/435.867
STARS 07 Feb 01:49:29 01:51:34 13° 66° (ENE) 01:53:37 437.465
SWISSCUBE 07 Feb 01:51:36 01:55:50 32° 262° (W) 02:00:07 437.505
BEESAT 3 07 Feb 01:54:45 01:57:26 17° 51° (NE) 02:00:08 437.485
KKS-1 07 Feb 01:55:43 01:59:36 30° 71° (ENE) 02:03:29 437.445
YUBILEINY 07 Feb 02:01:41 02:08:20 25° 83° (E) 02:15:00 435.215
BEESAT 2 07 Feb 02:13:00 02:15:46 18° 52° (NE) 02:18:31 435.950
Oscar 19 07 Feb 02:23:01 02:26:58 23° 292° (WNW) 02:30:54 437.125/150
Gurwin Techsat 1B 07 Feb 02:26:52 02:32:06 60° 286° (WNW) 02:37:19 435.225
AO-7 07 Feb 02:27:05 02:33:14 22° 95° (E) 02:39:21 29.400- 29.500
PHONESAT 2.4 07 Feb 02:27:25 02:30:38 54° 341° (NNW) 02:33:52 2401.200-2431.200
ITUPSAT 1 07 Feb 02:28:23 02:31:09 15° 266° (W) 02:33:58 437.325
BEESAT 07 Feb 02:40:34 02:41:56 11° 268° (W) 02:43:18 436.000
MOZHAYETS 4 07 Feb 03:01:37 03:06:05 59° 75° (ENE) 03:10:35
JAS-2 07 Feb 03:04:53 03:08:24 17° 297° (WNW) 03:11:45 435.910
M-CUBED/EXP-1 PRIME 07 Feb 03:07:02 03:08:36 13° 101° (E) 03:10:12 437.505
Cosmos 2491 07 Feb 03:09:55 03:18:25 59° 269° (W) 03:26:57 435.465 / 435.565
CUSAT 1 07 Feb 03:13:11 03:19:25 26° 290° (WNW) 03:25:59 437.405
HORYU 2 07 Feb 03:18:07 03:20:53 16° 94° (E) 03:23:37 437.375
DANDE 07 Feb 03:18:32 03:25:12 38° 287° (WNW) 03:32:53 436.750
AUBIESAT-1 07 Feb 03:19:16 03:21:23 15° 101° (E) 03:23:33 437.475
STARS 07 Feb 03:23:12 03:27:28 48° 260° (W) 03:31:45 437.465
ITAMSAT 1 07 Feb 03:24:11 03:28:47 32° 290° (WNW) 03:33:22 435.822/435.867
BEESAT 3 07 Feb 03:31:43 03:35:16 33° 247° (WSW) 03:38:48 437.485
KKS-1 07 Feb 03:32:50 03:36:09 20° 265° (W) 03:39:29 437.445
CUBESAT XI-V 07 Feb 03:36:16 03:38:17 13° 65° (ENE) 03:40:19 437.345
Cosmos 2504 07 Feb 03:41:57 03:48:05 23° 81° (E) 03:54:24 435.465 / 435.565
AIST 2 07 Feb 03:43:07 03:45:55 17° 51° (NE) 03:48:41 435.215
BEESAT 2 07 Feb 03:50:09 03:53:44 33° 247° (WSW) 03:57:17 435.950
YUBILEINY 07 Feb 03:55:47 04:04:23 60° 280° (W) 04:13:06 435.215
PHONESAT 2.4 07 Feb 04:05:27 04:08:18 27° 357° (N) 04:11:10 2401.200-2431.200
AO-7 07 Feb 04:18:15 04:26:29 67° 291° (WNW) 04:34:40 29.400- 29.500
M-CUBED/EXP-1 PRIME 07 Feb 04:40:21 04:43:16 27° 291° (WNW) 04:46:17 437.505
SO-50 07 Feb 04:40:41 04:45:15 42° 114° (ESE) 04:49:54 436.795
MOZHAYETS 4 07 Feb 04:42:52 04:43:35 10° 269° (W) 04:44:18
AUBIESAT-1 07 Feb 04:53:08 04:55:55 24° 292° (WNW) 04:58:50 437.475
Cubesat XI-IV 07 Feb 04:53:23 04:55:45 13° 92° (E) 04:58:07 437.490
HORYU 2 07 Feb 04:53:26 04:57:32 37° 288° (WNW) 05:01:37 437.375
CUBESAT XI-V 07 Feb 05:10:34 05:15:09 56° 260° (W) 05:19:46 437.345
AIST 2 07 Feb 05:20:43 05:24:31 36° 246° (WSW) 05:28:17 435.215
Cosmos 2504 07 Feb 05:32:14 05:40:33 67° 279° (W) 05:49:22 435.465 / 435.565
PHONESAT 2.4 07 Feb 05:42:57 05:46:02 38° 14° (NNE) 05:49:08 2401.200-2431.200
STRAND 1 07 Feb 06:13:27 06:18:32 79° 76° (ENE) 06:23:40 437.568
AO-7 07 Feb 06:14:41 06:17:41 12° 309° (NW) 06:20:42 29.400- 29.500
GOMX 1 07 Feb 06:15:37 06:18:51 20° 94° (E) 06:21:58 467.674
CUTE-I 07 Feb 06:18:04 06:23:28 86° 284° (WNW) 06:28:50 437.470
SO-50 07 Feb 06:22:08 06:25:55 22° 310° (NW) 06:29:44 436.795
LilacSat-2 07 Feb 06:26:20 06:30:02 57° 285° (WNW) 06:33:45 437.200
Cubesat XI-IV 07 Feb 06:30:52 06:36:12 65° 286° (WNW) 06:41:31 437.490
BRITE-PL 07 Feb 06:31:09 06:35:56 71° 101° (E) 06:40:20 437.365/2234.400
PRISM 07 Feb 06:31:20 06:35:04 33° 72° (ENE) 06:38:49 437.425
CUTE 1.7 + AOD 2 07 Feb 07:01:41 07:03:24 12° 92° (E) 07:05:06 437.475
SEEDS 07 Feb 07:13:23 07:15:09 12° 92° (E) 07:16:54 437.485
PHONESAT 2.4 07 Feb 07:20:13 07:23:22 46° 209° (SSW) 07:26:29 2401.200-2431.200
GONETS M04 07 Feb 07:27:32 07:33:01 19° 81° (E) 07:38:31
CINEMA 3 07 Feb 07:28:42 07:31:48 20° 95° (E) 07:34:55 145.822/145.860
O/OREOS (USA 219) 07 Feb 07:32:31 07:36:33 34° 104° (ESE) 07:40:37 437.305
Cosmos 2504 07 Feb 07:34:30 07:35:44 10° 299° (WNW) 07:36:57 435.465 / 435.565
AAUSAT CUBESAT 2 07 Feb 07:36:01 07:38:05 13° 93° (E) 07:40:08 437.432
CANX-2 07 Feb 07:44:06 07:48:14 47° 99° (E) 07:52:23 2200.000
DOVE 4 07 Feb 07:48:50 07:53:03 63° 284° (WNW) 07:57:08 437.250
HO-68 07 Feb 07:48:57 07:55:58 53° 101° (E) 08:02:56 435.675
GOMX 1 07 Feb 07:53:12 07:56:57 27° 290° (WNW) 08:00:33 467.674
CUBEBUG 2 07 Feb 07:56:34 07:58:52 14° 94° (E) 08:01:11 437.445
JUGNU 07 Feb 08:02:16 08:03:26 11° 164° (SSE) 08:04:36 437.505
UWE-3 07 Feb 08:04:12 08:05:56 12° 93° (E) 08:07:42 435.000/436.395/437.385
PRISM 07 Feb 08:07:57 08:10:28 16° 266° (W) 08:13:00 437.425
Oscar 11 07 Feb 08:16:22 08:19:08 16° 94° (E) 08:21:52 145.826/435.025
CUTE 1.7 + AOD 2 07 Feb 08:35:20 08:39:26 45° 286° (WNW) 08:43:31 437.475
COMPASS 1 07 Feb 08:38:00 08:42:14 80° 284° (WNW) 08:46:27 437.405
SEEDS 07 Feb 08:46:59 08:51:02 44° 286° (WNW) 08:55:05 437.485
ANTELSAT 07 Feb 08:50:25 08:53:57 25° 71° (ENE) 08:57:28 437.575/2403.000
Cosmos 2499 07 Feb 08:50:27 08:57:39 31° 84° (E) 09:05:04 435.465 / 435.565
TIGRISAT 07 Feb 08:58:06 09:01:51 29° 72° (ENE) 09:05:33 435.000
ZACube-1 07 Feb 09:03:03 09:07:06 45° 99° (E) 09:11:12 437.345
CINEMA 3 07 Feb 09:05:32 09:08:54 25° 289° (WNW) 09:12:17 145.822/145.860
AAUSAT CUBESAT 2 07 Feb 09:09:48 09:13:44 39° 286° (WNW) 09:17:39 437.432
DELFI C3 07 Feb 09:11:42 09:15:29 38° 98° (E) 09:19:16 145.870
O/OREOS (USA 219) 07 Feb 09:12:54 09:16:01 18° 299° (WNW) 09:19:10 437.305
FUNcube-1 07 Feb 09:13:36 09:17:45 58° 100° (E) 09:21:57 145.935
GONETS M04 07 Feb 09:20:08 09:28:48 75° 277° (W) 09:37:32
CANX-2 07 Feb 09:21:50 09:23:39 13° 293° (WNW) 09:25:29 2200.000
POPSAT HIP 1 07 Feb 09:25:58 09:28:11 14° 67° (ENE) 09:30:22 437.405
PCSat 07 Feb 09:30:33 09:32:08 11° 102° (ESE) 09:33:44 145.827
CUBEBUG 2 07 Feb 09:31:46 09:35:35 36° 287° (WNW) 09:39:29 437.445
NANOSAT C BR1 07 Feb 09:32:05 09:34:41 16° 68° (ENE) 09:37:17 145.865
DUCHIFAT 1 07 Feb 09:34:46 09:37:26 16° 68° (ENE) 09:40:05 145.980
HO-68 07 Feb 09:37:29 09:43:13 27° 297° (WNW) 09:48:58 435.675
QB50P1 07 Feb 09:37:56 09:41:00 20° 69° (ENE) 09:44:03 145.935-145.965
UWE-3 07 Feb 09:38:37 09:42:34 42° 286° (WNW) 09:46:36 435.000/436.395/437.385
AO-85 07 Feb 09:40:40 09:45:01 27° 109° (ESE) 09:49:32 145.980
UNISAT 6 07 Feb 09:40:57 09:45:19 80° 256° (WSW) 09:49:39 437.425
HUMSAT D 07 Feb 09:47:01 09:50:57 40° 99° (E) 09:54:54 437.325/437.525
JUGNU 07 Feb 09:47:56 09:51:42 17° 174° (S) 09:55:27 437.505
Oscar 11 07 Feb 09:51:23 09:55:19 34° 287° (WNW) 09:59:15 145.826/435.025
AIST 1 07 Feb 09:56:14 09:59:50 25° 89° (E) 10:03:27
RS-15 07 Feb 09:59:29 10:07:48 25° 102° (ESE) 10:16:19 29.354- 29.394
ANTELSAT 07 Feb 10:27:09 10:30:36 23° 264° (W) 10:34:00 437.575/2403.000
POLYITAN 1 07 Feb 10:27:58 10:32:13 82° 77° (ENE) 10:36:27 437.675
QB50P2 07 Feb 10:28:46 10:33:01 86° 77° (ENE) 10:37:16 145.880/145.840
TIGRISAT 07 Feb 10:35:22 10:38:31 19° 265° (W) 10:41:39 435.000
ZACube-1 07 Feb 10:41:10 10:43:00 13° 293° (WNW) 10:44:50 437.345
Cosmos 2499 07 Feb 10:42:02 10:50:17 51° 282° (WNW) 10:58:54 435.465 / 435.565
VELOX 1 07 Feb 10:42:23 10:46:16 30° 97° (E) 10:50:06 145.980
BUGSAT 1 07 Feb 10:46:59 10:51:10 62° 75° (ENE) 10:55:19 437.445
DELFI C3 07 Feb 10:48:02 10:50:02 13° 292° (WNW) 10:52:02 145.870
AISAT 07 Feb 10:58:12 11:02:29 48° 100° (E) 11:06:44 437.250
POPSAT HIP 1 07 Feb 10:59:34 11:03:35 41° 261° (W) 11:07:36 437.405
NANOSAT C BR1 07 Feb 11:06:14 11:10:07 35° 262° (W) 11:14:00 145.865
ESTCUBE 1 07 Feb 11:08:33 11:13:06 72° 102° (ESE) 11:17:37 437.505/2401.250
DUCHIFAT 1 07 Feb 11:08:59 11:12:50 34° 262° (W) 11:16:41 145.980
PCSat 07 Feb 11:09:24 11:14:48 75° 297° (WNW) 11:20:15 145.827
QB50P1 07 Feb 11:12:54 11:16:34 28° 263° (W) 11:20:15 145.935-145.965
SRMSAT 07 Feb 11:18:44 11:22:13 16° 171° (S) 11:25:41 437.500
AO-85 07 Feb 11:20:26 11:25:21 37° 305° (NW) 11:30:27 145.980
HUMSAT D 07 Feb 11:24:06 11:26:13 14° 292° (WNW) 11:28:21 437.325/437.525
GONETS M04 07 Feb 11:24:28 11:27:07 12° 297° (WNW) 11:29:47
CUBEBUG 1 07 Feb 11:26:08 11:30:31 85° 104° (ESE) 11:34:51 437.445
JAS-2 07 Feb 11:26:25 11:31:46 21° 64° (ENE) 11:36:52 435.910
UKube-1 07 Feb 11:26:45 11:31:05 86° 284° (WNW) 11:35:24 .
50 SAT 07 Feb 11:32:41 11:36:16 42° 286° (WNW) 11:39:52 437.505
DX 1 07 Feb 11:33:47 11:38:04 59° 286° (WNW) 11:42:19 434.975-435.025
AIST 1 07 Feb 11:33:59 11:37:21 21° 284° (WNW) 11:40:45
JUGNU 07 Feb 11:36:07 11:40:00 18° 184° (S) 11:43:53 437.505
SPROUT 07 Feb 11:41:05 11:45:05 39° 99° (E) 11:49:04 437.525
Oscar 19 07 Feb 11:56:30 12:01:13 37° 71° (ENE) 12:05:57 437.125/150
TISAT 1 07 Feb 12:01:23 12:04:44 23° 96° (E) 12:08:02 437.305
Gurwin Techsat 1B 07 Feb 12:06:49 12:10:05 17° 65° (ENE) 12:13:22 435.225
RS-15 07 Feb 12:07:50 12:18:53 74° 301° (WNW) 12:30:34 29.354- 29.394
CUSAT 1 07 Feb 12:12:45 12:17:51 29° 70° (ENE) 12:21:53 437.405
VELOX 1 07 Feb 12:19:17 12:22:31 20° 291° (WNW) 12:25:45 145.980
DANDE 07 Feb 12:22:29 12:28:00 24° 66° (ENE) 12:32:34 436.750
AISAT 07 Feb 12:36:32 12:38:31 13° 294° (WNW) 12:40:29 437.250
ITUPSAT 1 07 Feb 12:54:00 12:56:51 15° 94° (E) 12:59:40 437.325
PCSat 07 Feb 12:58:24 12:59:07 10° 315° (NW) 12:59:49 145.827
ITAMSAT 1 07 Feb 12:59:39 13:04:00 28° 69° (ENE) 13:08:22 435.822/435.867
BEESAT 07 Feb 13:03:42 13:07:16 20° 95° (E) 13:10:47 436.000
SRMSAT 07 Feb 13:06:36 13:10:40 19° 181° (S) 13:14:46 437.500
JAS-2 07 Feb 13:08:20 13:16:09 73° 258° (WSW) 13:23:28 435.910
SO-50 07 Feb 13:16:37 13:19:42 17° 48° (NE) 13:22:42 436.795
SPROUT 07 Feb 13:18:23 13:20:41 14° 293° (WNW) 13:22:58 437.525
AO-7 07 Feb 13:22:42 13:29:03 25° 58° (ENE) 13:35:23 29.400- 29.500
JUGNU 07 Feb 13:26:01 13:28:16 12° 194° (SSW) 13:30:31 437.505
Oscar 19 07 Feb 13:36:36 13:40:34 22° 265° (W) 13:44:34 437.125/150
TISAT 1 07 Feb 13:36:59 13:40:17 23° 290° (WNW) 13:43:33 437.305
Gurwin Techsat 1B 07 Feb 13:44:23 13:49:33 53° 260° (W) 13:54:45 435.225
M-CUBED/EXP-1 PRIME 07 Feb 13:52:27 13:53:16 11° 64° (ENE) 13:54:05 437.505
SWISSCUBE 07 Feb 13:54:40 13:59:29 84° 97° (E) 14:04:18 437.505
CUSAT 1 07 Feb 13:55:19 13:59:53 25° 276° (W) 14:03:34 437.405
AUBIESAT-1 07 Feb 14:04:00 14:05:29 12° 65° (ENE) 14:06:56 437.475
DANDE 07 Feb 14:04:46 14:11:24 45° 271° (W) 14:16:30 436.750
YUBILEINY 07 Feb 14:10:19 14:19:02 59° 80° (E) 14:27:40 435.215
Cosmos 2491 07 Feb 14:10:53 14:18:23 34° 86° (E) 14:25:52 435.465 / 435.565
HORYU 2 07 Feb 14:15:37 14:15:51 10° 64° (ENE) 14:16:05 437.375
RS-15 07 Feb 14:25:30 14:33:46 22° 327° (NNW) 14:42:22 29.354- 29.394
ITUPSAT 1 07 Feb 14:30:16 14:34:51 45° 288° (WNW) 14:39:26 437.325
ITAMSAT 1 07 Feb 14:38:53 14:43:20 29° 263° (W) 14:47:50 435.822/435.867
BEESAT 07 Feb 14:40:46 14:45:04 34° 289° (WNW) 14:49:22 436.000
SO-50 07 Feb 14:55:53 15:00:32 54° 245° (WSW) 15:05:01 436.795
SRMSAT 07 Feb 14:55:54 14:59:09 15° 191° (S) 15:02:23 437.500
ISS 07 Feb 14:57:51 15:00:02 17° 128° (SE) 15:02:13 145.825
JAS-2 07 Feb 15:00:51 15:01:50 10° 271° (W) 15:02:49 435.910
MOZHAYETS 4 07 Feb 15:01:08 15:04:23 19° 94° (E) 15:07:37
AO-7 07 Feb 15:12:45 15:21:04 68° 255° (WSW) 15:29:26 29.400- 29.500
STARS 07 Feb 15:16:14 15:20:19 38° 99° (E) 15:24:22 437.465
M-CUBED/EXP-1 PRIME 07 Feb 15:23:57 15:27:37 41° 255° (WSW) 15:31:03 437.505
KKS-1 07 Feb 15:25:58 15:30:24 81° 284° (WNW) 15:34:49 437.445
Cosmos 2504 07 Feb 15:30:06 15:38:03 40° 75° (ENE) 15:45:30 435.465 / 435.565
AUBIESAT-1 07 Feb 15:36:17 15:39:48 35° 256° (WSW) 15:43:07 437.475
HORYU 2 07 Feb 15:47:28 15:51:50 64° 258° (WSW) 15:56:14 437.375
CUTE-I 07 Feb 16:00:18 16:02:17 12° 62° (ENE) 16:04:17 437.470
Cosmos 2491 07 Feb 16:06:39 16:14:52 45° 283° (WNW) 16:23:08 435.465 / 435.565
YUBILEINY 07 Feb 16:08:20 16:15:07 26° 277° (W) 16:21:54 435.215
Cubesat XI-IV 07 Feb 16:11:50 16:15:01 16° 64° (ENE) 16:18:13 437.490
ISS 07 Feb 16:33:17 16:36:17 34° 322° (NW) 16:39:17 145.825
MOZHAYETS 4 07 Feb 16:37:24 16:41:36 35° 288° (WNW) 16:45:48
RS-15 07 Feb 16:48:45 16:53:10 12° 5° (N) 16:57:39 29.354- 29.394
STARS 07 Feb 16:53:43 16:56:21 16° 293° (WNW) 16:58:57 437.465
LilacSat-2 07 Feb 17:04:51 17:08:24 37° 74° (ENE) 17:11:56 437.200
CUBESAT XI-V 07 Feb 17:10:44 17:15:17 47° 99° (E) 17:19:47 437.345
BEESAT 3 07 Feb 17:18:56 17:22:55 84° 301° (WNW) 17:26:55 437.485
GOMX 1 07 Feb 17:19:30 17:23:23 20° 68° (ENE) 17:27:11 467.674
Cosmos 2504 07 Feb 17:23:37 17:31:15 38° 274° (W) 17:38:28 435.465 / 435.565
CUTE-I 07 Feb 17:36:20 17:41:37 75° 257° (WSW) 17:46:58 437.470
BRITE-PL 07 Feb 17:36:40 17:42:14 59° 74° (ENE) 17:47:47 437.365/2234.400
BEESAT 2 07 Feb 17:38:33 17:42:33 81° 298° (WNW) 17:46:36 435.950
O/OREOS (USA 219) 07 Feb 17:45:41 17:49:58 37° 66° (ENE) 17:54:14 437.305
Cubesat XI-IV 07 Feb 17:49:23 17:54:35 55° 259° (W) 17:59:49 437.490
HO-68 07 Feb 18:14:32 18:20:21 28° 63° (ENE) 18:26:10 435.675
AO-85 07 Feb 18:17:59 18:19:32 11° 42° (NE) 18:21:04 145.980
CINEMA 3 07 Feb 18:27:39 18:30:17 15° 68° (ENE) 18:32:53 145.822/145.860
STRAND 1 07 Feb 18:27:52 18:32:35 36° 98° (E) 18:37:17 437.568
CANX-2 07 Feb 18:34:06 18:37:18 21° 70° (ENE) 18:40:29 2200.000
LilacSat-2 07 Feb 18:41:35 18:42:50 11° 267° (W) 18:44:05 437.200
DOVE 4 07 Feb 18:49:27 18:54:40 83° 77° (ENE) 18:59:40 437.250
CUBESAT XI-V 07 Feb 18:49:35 18:52:13 15° 294° (WNW) 18:54:51 437.345
GOMX 1 07 Feb 18:55:52 19:01:05 46° 261° (W) 19:06:13 467.674
RS-15 07 Feb 19:01:52 19:11:53 29° 40° (NE) 19:21:59 29.354- 29.394
AIST 2 07 Feb 19:14:20 19:18:30 76° 300° (WNW) 19:22:41 435.215
BRITE-PL 07 Feb 19:17:27 19:20:57 17° 268° (W) 19:24:27 437.365/2234.400
CUTE 1.7 + AOD 2 07 Feb 19:24:01 19:28:13 78° 76° (ENE) 19:32:25 437.475
COMPASS 1 07 Feb 19:25:18 19:29:10 40° 74° (ENE) 19:33:04 437.405
O/OREOS (USA 219) 07 Feb 19:26:06 19:29:01 17° 260° (W) 19:31:54 437.305
SEEDS 07 Feb 19:34:45 19:38:54 77° 77° (ENE) 19:43:05 437.485
GONETS M04 07 Feb 19:34:56 19:43:20 47° 78° (ENE) 19:51:44
PRISM 07 Feb 19:51:19 19:55:31 88° 275° (W) 19:59:40 437.425
AO-85 07 Feb 19:55:53 20:00:57 83° 59° (ENE) 20:05:34 145.980
DELFI C3 07 Feb 19:56:01 19:58:13 14° 68° (ENE) 20:00:23 145.870
AAUSAT CUBESAT 2 07 Feb 19:56:03 20:00:09 81° 80° (E) 20:04:19 437.432
ZACube-1 07 Feb 19:56:04 19:59:24 23° 71° (ENE) 20:02:42 437.345
HO-68 07 Feb 20:00:44 20:07:39 50° 259° (W) 20:14:36 435.675
PCSat 07 Feb 20:01:02 20:06:09 40° 59° (ENE) 20:11:13 145.827
CINEMA 3 07 Feb 20:02:32 20:07:05 45° 261° (W) 20:11:28 145.822/145.860
FUNcube-1 07 Feb 20:06:05 20:09:43 28° 72° (ENE) 20:13:18 145.935
STRAND 1 07 Feb 20:07:31 20:11:30 23° 292° (WNW) 20:15:30 437.568
CANX-2 07 Feb 20:09:31 20:13:00 25° 264° (W) 20:16:29 2200.000
CUBEBUG 2 07 Feb 20:25:45 20:30:09 72° 259° (W) 20:34:26 437.445
UWE-3 07 Feb 20:31:37 20:35:58 87° 257° (WSW) 20:40:13 435.000/436.395/437.385
HUMSAT D 07 Feb 20:36:00 20:38:45 18° 69° (ENE) 20:41:31 437.325/437.525
Cosmos 2499 07 Feb 20:38:16 20:46:24 51° 78° (ENE) 20:53:53 435.465 / 435.565
Oscar 11 07 Feb 20:41:55 20:46:11 73° 259° (W) 20:50:29 145.826/435.025
COMPASS 1 07 Feb 21:03:07 21:04:55 12° 267° (W) 21:06:42 437.405
